Weather History for Guymon, OK

Change the Weather History Date:

Thursday, January 23, 2014

  Actual Average Record
Temperature  
Mean Temperature 16 °F 36 °F  
Max Temperature 31 °F 51 °F 73 °F (2013)
Min Temperature 0 °F 22 °F 0 °F (2014)
Degree Days  
Heating Degree Days 49 29  
Month to date heating degree days 619 684  
Since 1 July heating degree days 2465 2501  
Cooling Degree Days 0 0  
Month to date cooling degree days 0 0  
Year to date cooling degree days 0 0  
Moisture  
Dew Point 2 °F    
Average Humidity 64    
Maximum Humidity 87    
Minimum Humidity 40    
Precipitation  
Precipitation 0.06 in 0.02 in 0.06 in (2014)
Month to date precipitation 0.08 0.22  
Year to date precipitation 0.08 0.22  
Snow  
Snow 1.00 in - - ()
Month to date snowfall 2.0  
Since 1 July snowfall 9.2  
Snow Depth 0.00 in    
Sea Level Pressure  
Sea Level Pressure 30.68 in    
Wind  
Wind Speed 12 mph (NNE)    
Max Wind Speed 23 mph    
Max Gust Speed 32 mph    
Visibility 6 miles    
Events Snow    
T = Trace of Precipitation, MM = Missing Value Source: NWS Daily Summary

Daily Weather History Graph

Daily Weather History Graph

Search for Another Location

Airport:

Trip Planner

Search our weather history database for the weather conditions in past years. The results will help you decide how hot, cold, wet, or windy it might be!

Date:

Astronomy

Jan. 23, 2014 Rise Set
Actual Time 7:54 AM CST 6:02 PM CST
Civil Twilight 7:26 AM CST 6:29 PM CST
Nautical Twilight 6:54 AM CST 7:01 PM CST
Astronomical Twilight 6:24 AM CST 7:32 PM CST
Moon 12:23 AM CST (1/23) 11:42 AM CST (1/23)
Length of Visible Light 11h 03m
Length of Day
10h 08m
Waning Gibbous, 55% of the Moon is Illuminated
Jan 23
Waning Gibbous
Jan 23
Last Quarter
Jan 30
New
Feb 6
First Quarter
Feb 14
Full

Hourly Weather History & Observations

Time (CST) Temp. Windchill Dew Point Humidity Pressure Visibility Wind Dir Wind Speed Gust Speed Precip Events Conditions
12:53 AM 25.0 °F 9.9 °F 14.0 °F 63% 30.35 in 10.0 mi NE 23.0 mph 28.8 mph N/A   Overcast
1:53 AM 23.0 °F 9.2 °F 12.0 °F 63% 30.38 in 10.0 mi NE 17.3 mph 26.5 mph N/A   Overcast
2:29 AM 21.0 °F 7.1 °F 9.0 °F 60% 30.38 in 10.0 mi NE 16.1 mph - N/A   Overcast
2:53 AM 21.0 °F 6.6 °F 9.0 °F 60% 30.42 in 10.0 mi NE 17.3 mph - N/A   Overcast
3:53 AM 17.1 °F 0.1 °F 3.0 °F 54% 30.46 in 10.0 mi NE 20.7 mph 26.5 mph N/A   Overcast
4:53 AM 15.1 °F -1.6 °F -5.1 °F 41% 30.49 in 10.0 mi NE 18.4 mph - N/A   Overcast
5:53 AM 12.9 °F -4.9 °F -7.1 °F 41% 30.55 in 10.0 mi NNE 19.6 mph - N/A   Overcast
6:53 AM 12.0 °F -4.0 °F -8.0 °F 41% 30.61 in 10.0 mi NE 15.0 mph - N/A   Overcast
7:53 AM 10.0 °F -8.1 °F -6.0 °F 48% 30.66 in 7.0 mi NNE 18.4 mph - 0.00 in Snow Light Snow
8:40 AM 8.1 °F -10.7 °F 1.0 °F 73% 30.61 in 2.5 mi NNE 18.4 mph - 0.00 in Snow Light Snow
8:50 AM 6.8 °F -11.8 °F 1.4 °F 79% 30.63 in 1.5 mi NNE 17.3 mph - 0.00 in Snow Light Snow
8:53 AM 7.0 °F -11.0 °F 1.0 °F 77% 30.72 in 1.2 mi NNE 16.1 mph - 0.00 in Snow Light Snow
9:14 AM 8.1 °F -7.7 °F 1.9 °F 76% 30.65 in 2.0 mi NNE 12.7 mph - 0.01 in Snow Light Snow
9:22 AM 8.1 °F -8.4 °F 1.9 °F 76% 30.66 in 1.5 mi NNE 13.8 mph - 0.01 in Snow Light Snow
9:46 AM 7.0 °F -9.1 °F 1.0 °F 77% 30.67 in 1.5 mi NNE 12.7 mph - 0.01 in Snow Light Snow
9:53 AM 8.1 °F -7.7 °F 1.9 °F 76% 30.77 in 1.2 mi NNE 12.7 mph - 0.02 in Snow Light Snow
10:15 AM 9.0 °F -6.6 °F 1.9 °F 73% 30.68 in 2.0 mi NNE 12.7 mph - 0.00 in Snow Light Snow
10:22 AM 9.0 °F -6.6 °F 1.9 °F 73% 30.68 in 1.0 mi NNE 12.7 mph - 0.00 in Snow Light Snow
10:31 AM 8.1 °F -7.7 °F 3.0 °F 80% 30.68 in 0.8 mi NNE 12.7 mph - 0.00 in Snow Light Snow
10:44 AM 9.0 °F -5.9 °F 3.0 °F 77% 30.69 in 0.8 mi NNE 11.5 mph - 0.01 in Snow Light Snow
10:53 AM 9.0 °F -5.9 °F 3.0 °F 77% 30.79 in 0.8 mi NNE 11.5 mph - 0.01 in Snow Light Snow
11:53 AM 8.1 °F -6.2 °F 1.9 °F 76% 30.82 in 0.8 mi NNE 10.4 mph - 0.03 in Snow Light Snow
12:03 PM 9.0 °F -5.9 °F 3.0 °F 77% 30.72 in 1.0 mi North 11.5 mph - 0.00 in Snow Light Snow
12:14 PM 9.0 °F -5.9 °F 3.0 °F 77% 30.71 in 0.8 mi North 11.5 mph - 0.00 in Snow Light Snow
12:38 PM 10.0 °F -5.9 °F 1.9 °F 70% 30.71 in 1.5 mi North 13.8 mph - 0.00 in Snow Light Snow
12:46 PM 10.0 °F -5.2 °F 1.9 °F 70% 30.70 in 2.5 mi North 12.7 mph - 0.00 in Snow Light Snow
12:53 PM 10.0 °F -4.5 °F 1.9 °F 70% 30.81 in 2.5 mi NNE 11.5 mph - 0.00 in Snow Light Snow
12:55 PM 10.0 °F -2.9 °F 1.9 °F 70% 30.70 in 3.0 mi North 9.2 mph - 0.00 in Snow Light Snow
1:23 PM 10.9 °F -4.7 °F 3.0 °F 70% 30.69 in 2.5 mi North 13.8 mph - 0.00 in Snow Light Snow
1:33 PM 10.9 °F -2.6 °F 3.0 °F 70% 30.69 in 4.0 mi North 10.4 mph - 0.00 in Snow Light Snow
1:45 PM 10.9 °F -3.4 °F 3.0 °F 70% 30.68 in 4.0 mi North 11.5 mph - 0.00 in   Haze
1:53 PM 10.9 °F -4.1 °F 3.0 °F 70% 30.80 in 5.0 mi North 12.7 mph - 0.00 in   Haze
2:32 PM 12.0 °F -2.0 °F 3.0 °F 67% 30.67 in 10.0 mi North 11.5 mph - N/A   Scattered Clouds
2:53 PM 12.0 °F -1.3 °F 3.0 °F 67% 30.78 in 10.0 mi North 10.4 mph - N/A   Mostly Cloudy
3:23 PM 12.9 °F -0.2 °F 1.9 °F 62% 30.67 in 10.0 mi NNW 10.4 mph - N/A   Partly Cloudy
3:53 PM 12.9 °F 1.6 °F 3.0 °F 65% 30.79 in 10.0 mi North 8.1 mph - N/A   Clear
4:53 PM 12.9 °F 2.6 °F 1.9 °F 62% 30.80 in 10.0 mi NNW 6.9 mph - N/A   Clear
5:53 PM 10.9 °F 4.7 °F 1.9 °F 67% 30.79 in 10.0 mi NNW 3.5 mph - N/A   Clear
6:53 PM 8.1 °F - 1.0 °F 73% 30.79 in 10.0 mi Calm Calm - N/A   Clear
7:53 PM 1.9 °F -9.2 °F -2.9 °F 80% 30.80 in 10.0 mi SW 5.8 mph - N/A   Clear
8:53 PM 1.9 °F -9.2 °F -2.9 °F 80% 30.80 in 10.0 mi SW 5.8 mph - N/A   Clear
9:53 PM 1.9 °F -11.8 °F -4.0 °F 76% 30.78 in 10.0 mi SSW 8.1 mph - N/A   Clear
10:53 PM 1.9 °F -12.9 °F -4.0 °F 76% 30.75 in 10.0 mi SSW 9.2 mph - N/A   Clear
11:53 PM 1.0 °F -10.3 °F -4.0 °F 79% 30.74 in 10.0 mi South 5.8 mph - N/A   Clear